Location: Schommer Observatory
(40.5200°N, 74.4500°W)
Time: 00:09:46
(UTC-04:00)

Envisat - Pass Details

Date: 24 May 2018
Orbit: 764 x 766 km, 98.2° (Epoch: 23 May)

Event Time Altitude Azimuth Distance (km) Brightness Sun altitude
Rises 21:20:10 0° 202° (SSW) 3,216 6.0 -10.9°
Reaches altitude 10° 21:23:00 10° 218° (SW) 2,295 5.5 -11.3°
Maximum altitude 21:26:47 21° 267° (W) 1,672 5.4 -11.9°
Drops below altitude 10° 21:30:34 10° 316° (NW) 2,307 7.0 -12.4°
Sets 21:33:27 0° 332° (NNW) 3,238 7.7 -12.8°
